Station Historical Data
Daily Summary for January 4, 2018 Units:  English    Metric   Both
« Previous Day
Next Day »
Daily Weekly Monthly Yearly Custom
  High: Low: Average:
Temperature: 26.3 °F 14.5 °F 22.7 °F
Dew Point: 22.8 °F 0.8 °F 15.2 °F
Humidity: 91 % 54 % 74 %
Wind Speed: 20.0 mph 0.0 mph 5.2 mph
Wind Gust: 29.0 mph - -
Wind:- - SW
Pressure: 29.99 in 29.64 in -
Precipitation: 0.00 in    
Historical Graphs
 
 
Tabular Data for January 4, 2018
Time Temperature Dew Point Pressure Wind Wind Speed Wind Gust Humidity Rainfall Rate (Hourly)
00:02 26.3 °F 22.1 °F 29.99 in Calm   1.0 mph 84 % 0.00 in
00:03 26.3 °F 22.1 °F 29.99 in Calm   1.0 mph 84 % 0.00 in
00:09 26.2 °F 22.3 °F 29.98 in Calm   1.0 mph 85 % 0.00 in
00:14 26.2 °F 22.6 °F 29.98 in Calm   1.0 mph 86 % 0.00 in
00:19 26.2 °F 22.6 °F 29.98 in Calm   2.0 mph 86 % 0.00 in
00:20 26.2 °F 22.6 °F 29.97 in East 1.0 mph 3.0 mph 86 % 0.00 in
00:25 26.1 °F 22.7 °F 29.97 in NNE 1.0 mph 4.0 mph 87 % 0.00 in
00:26 26.1 °F 22.7 °F 29.97 in Calm   4.0 mph 87 % 0.00 in
00:27 26.1 °F 22.7 °F 29.97 in Calm   4.0 mph 87 % 0.00 in
00:29 26.0 °F 22.6 °F 29.97 in Calm   4.0 mph 87 % 0.00 in
00:32 26.0 °F 22.6 °F 29.96 in Calm   4.0 mph 87 % 0.00 in
00:37 25.9 °F 22.8 °F 29.96 in NW 2.0 mph 4.0 mph 88 % 0.00 in
00:39 25.8 °F 22.7 °F 29.96 in Calm   4.0 mph 88 % 0.00 in
00:45 25.6 °F 22.5 °F 29.95 in Calm   4.0 mph 88 % 0.00 in
00:50 25.4 °F 22.3 °F 29.95 in Calm   6.0 mph 88 % 0.00 in
00:53 25.3 °F 22.2 °F 29.95 in Calm   6.0 mph 88 % 0.00 in
00:55 25.3 °F 22.2 °F 29.95 in Calm   6.0 mph 88 % 0.00 in
00:59 25.2 °F 22.1 °F 29.95 in NW 3.0 mph 6.0 mph 88 % 0.00 in
01:00 25.2 °F 22.1 °F 29.95 in Calm   6.0 mph 88 % 0.00 in
01:03 25.1 °F 22.3 °F 29.95 in NW 2.0 mph 6.0 mph 89 % 0.00 in
01:04 25.0 °F 22.2 °F 29.94 in Calm   6.0 mph 89 % 0.00 in
01:09 24.9 °F 21.8 °F 29.94 in WNW 3.0 mph 7.0 mph 88 % 0.00 in
01:10 24.9 °F 22.1 °F 29.94 in Calm   7.0 mph 89 % 0.00 in
01:12 24.8 °F 22.0 °F 29.94 in WNW 1.0 mph 7.0 mph 89 % 0.00 in
01:20 24.6 °F 21.8 °F 29.93 in Calm   8.0 mph 89 % 0.00 in
01:21 24.6 °F 21.8 °F 29.93 in NW 2.0 mph 8.0 mph 89 % 0.00 in
01:22 24.6 °F 21.8 °F 29.93 in NW 1.0 mph 8.0 mph 89 % 0.00 in
01:27 24.5 °F 21.7 °F 29.93 in NW 2.0 mph 8.0 mph 89 % 0.00 in
01:28 24.5 °F 21.7 °F 29.93 in NW 2.0 mph 8.0 mph 89 % 0.00 in
01:30 24.4 °F 21.6 °F 29.92 in NW 2.0 mph 8.0 mph 89 % 0.00 in
01:31 24.4 °F 21.6 °F 29.92 in NW 1.0 mph 8.0 mph 89 % 0.00 in
01:33 24.4 °F 21.6 °F 29.92 in NW 1.0 mph 8.0 mph 89 % 0.00 in
01:34 24.3 °F 21.5 °F 29.92 in Calm   7.0 mph 89 % 0.00 in
01:39 24.3 °F 21.5 °F 29.92 in NW 2.0 mph 5.0 mph 89 % 0.00 in
01:42 24.3 °F 21.7 °F 29.91 in Calm   5.0 mph 90 % 0.00 in
01:44 24.3 °F 21.7 °F 29.91 in NW 3.0 mph 5.0 mph 90 % 0.00 in
01:46 24.3 °F 21.7 °F 29.91 in Calm   5.0 mph 90 % 0.00 in
01:48 24.4 °F 21.8 °F 29.91 in NW 1.0 mph 5.0 mph 90 % 0.00 in
01:49 24.4 °F 21.8 °F 29.91 in NW 3.0 mph 5.0 mph 90 % 0.00 in
01:50 24.4 °F 21.8 °F 29.90 in NW 2.0 mph 5.0 mph 90 % 0.00 in
01:55 24.3 °F 21.7 °F 29.90 in Calm   5.0 mph 90 % 0.00 in
02:00 24.4 °F 21.8 °F 29.90 in Calm   5.0 mph 90 % 0.00 in
02:05 24.4 °F 21.8 °F 29.90 in Calm   5.0 mph 90 % 0.00 in
02:07 24.4 °F 21.8 °F 29.90 in NW 1.0 mph 5.0 mph 90 % 0.00 in
02:12 24.5 °F 22.2 °F 29.89 in NW 4.0 mph 5.0 mph 91 % 0.00 in
02:13 24.5 °F 22.2 °F 29.89 in NW 2.0 mph 5.0 mph 91 % 0.00 in
02:15 24.5 °F 22.2 °F 29.89 in NW 3.0 mph 5.0 mph 91 % 0.00 in
02:18 24.5 °F 22.2 °F 29.88 in WNW 2.0 mph 5.0 mph 91 % 0.00 in
02:19 24.5 °F 22.2 °F 29.88 in NNE 2.0 mph 5.0 mph 91 % 0.00 in
02:24 24.4 °F 22.2 °F 29.87 in NW 2.0 mph 6.0 mph 91 % 0.00 in
02:25 24.4 °F 22.2 °F 29.87 in North 3.0 mph 6.0 mph 91 % 0.00 in
02:30 24.2 °F 22.0 °F 29.87 in NNE 4.0 mph 7.0 mph 91 % 0.00 in
02:35 24.2 °F 22.0 °F 29.87 in NW 5.0 mph 9.0 mph 91 % 0.00 in
02:36 24.3 °F 22.1 °F 29.87 in WNW 3.0 mph 9.0 mph 91 % 0.00 in
02:40 24.3 °F 22.0 °F 29.87 in Calm   9.0 mph 91 % 0.00 in
02:41 24.3 °F 22.0 °F 29.87 in WNW 4.0 mph 9.0 mph 91 % 0.00 in
02:46 24.3 °F 22.1 °F 29.87 in NW 4.0 mph 9.0 mph 91 % 0.00 in
02:48 24.3 °F 22.1 °F 29.87 in Calm   9.0 mph 91 % 0.00 in
02:53 24.3 °F 22.0 °F 29.86 in NNE 4.0 mph 8.0 mph 91 % 0.00 in
02:58 24.3 °F 21.7 °F 29.85 in North 5.0 mph 7.0 mph 90 % 0.00 in
03:03 24.3 °F 21.7 °F 29.84 in NW 2.0 mph 7.0 mph 90 % 0.00 in
03:05 24.3 °F 21.7 °F 29.84 in NNE 4.0 mph 7.0 mph 90 % 0.00 in
03:06 24.3 °F 21.7 °F 29.84 in WNW 3.0 mph 7.0 mph 90 % 0.00 in
03:11 24.3 °F 21.5 °F 29.83 in NW 3.0 mph 7.0 mph 89 % 0.00 in
03:12 24.3 °F 21.5 °F 29.83 in NW 3.0 mph 7.0 mph 89 % 0.00 in
03:13 24.3 °F 21.5 °F 29.83 in NW 2.0 mph 7.0 mph 89 % 0.00 in
03:17 24.4 °F 21.6 °F 29.83 in NW 2.0 mph 7.0 mph 89 % 0.00 in
03:18 24.4 °F 21.6 °F 29.83 in NW 1.0 mph 7.0 mph 89 % 0.00 in
03:22 24.4 °F 21.3 °F 29.82 in WNW 2.0 mph 7.0 mph 88 % 0.00 in
03:26 24.5 °F 21.4 °F 29.82 in North 5.0 mph 7.0 mph 88 % 0.00 in
03:28 24.5 °F 21.1 °F 29.82 in NW 6.0 mph 7.0 mph 87 % 0.00 in
03:29 24.6 °F 21.2 °F 29.82 in NNE 2.0 mph 7.0 mph 87 % 0.00 in
03:33 24.6 °F 20.7 °F 29.82 in NW 2.0 mph 7.0 mph 85 % 0.00 in
03:34 24.7 °F 20.8 °F 29.82 in WNW 3.0 mph 7.0 mph 85 % 0.00 in
03:38 24.7 °F 20.3 °F 29.81 in North 2.0 mph 10.0 mph 83 % 0.00 in
03:44 24.8 °F 20.1 °F 29.81 in WNW 2.0 mph 10.0 mph 82 % 0.00 in
03:47 24.9 °F 19.9 °F 29.80 in NW 5.0 mph 12.0 mph 81 % 0.00 in
03:52 24.9 °F 19.9 °F 29.80 in NW 6.0 mph 12.0 mph 81 % 0.00 in
03:53 24.9 °F 20.2 °F 29.80 in Calm   12.0 mph 82 % 0.00 in
03:54 24.8 °F 20.1 °F 29.80 in North 4.0 mph 12.0 mph 82 % 0.00 in
03:58 24.8 °F 20.1 °F 29.80 in WNW 4.0 mph 14.0 mph 82 % 0.00 in
04:03 24.6 °F 20.2 °F 29.79 in NW 5.0 mph 14.0 mph 83 % 0.00 in
04:04 24.5 °F 20.1 °F 29.79 in NW 3.0 mph 14.0 mph 83 % 0.00 in
04:09 24.5 °F 20.6 °F 29.78 in NNE 7.0 mph 14.0 mph 85 % 0.00 in
04:14 24.3 °F 20.4 °F 29.78 in NW 5.0 mph 14.0 mph 85 % 0.00 in
04:15 24.3 °F 20.4 °F 29.78 in WNW 7.0 mph 13.0 mph 85 % 0.00 in
04:20 24.1 °F 20.5 °F 29.78 in WNW 1.0 mph 13.0 mph 86 % 0.00 in
04:21 24.0 °F 20.4 °F 29.78 in NNE 2.0 mph 13.0 mph 86 % 0.00 in
04:23 23.9 °F 20.6 °F 29.78 in WNW 2.0 mph 13.0 mph 87 % 0.00 in
04:26 23.8 °F 20.5 °F 29.78 in WNW 7.0 mph 13.0 mph 87 % 0.00 in
04:31 23.5 °F 20.2 °F 29.78 in North 8.0 mph 13.0 mph 87 % 0.00 in
04:32 23.5 °F 20.2 °F 29.78 in WNW 7.0 mph 13.0 mph 87 % 0.00 in
04:37 23.4 °F 20.1 °F 29.77 in NW 3.0 mph 15.0 mph 87 % 0.00 in
04:42 23.1 °F 20.0 °F 29.77 in NW 5.0 mph 15.0 mph 88 % 0.00 in
04:47 22.9 °F 19.8 °F 29.77 in Calm   15.0 mph 88 % 0.00 in
04:50 22.8 °F 19.7 °F 29.78 in NW 4.0 mph 15.0 mph 88 % 0.00 in
04:52 22.8 °F 19.7 °F 29.77 in North 6.0 mph 15.0 mph 88 % 0.00 in
04:53 22.8 °F 19.7 °F 29.77 in North 3.0 mph 15.0 mph 88 % 0.00 in
04:56 22.7 °F 19.6 °F 29.77 in North 2.0 mph 12.0 mph 88 % 0.00 in
04:57 22.7 °F 19.6 °F 29.77 in NNE 8.0 mph 12.0 mph 88 % 0.00 in
05:02 22.6 °F 19.5 °F 29.76 in North 2.0 mph 12.0 mph 88 % 0.00 in
05:05 22.6 °F 19.8 °F 29.76 in WNW 3.0 mph 12.0 mph 89 % 0.00 in
05:07 22.6 °F 19.8 °F 29.76 in North 4.0 mph 13.0 mph 89 % 0.00 in
05:12 22.5 °F 19.7 °F 29.76 in NW 6.0 mph 13.0 mph 89 % 0.00 in
05:17 22.5 °F 19.7 °F 29.76 in North 3.0 mph 13.0 mph 89 % 0.00 in
05:18 22.5 °F 19.7 °F 29.76 in NNE 5.0 mph 13.0 mph 89 % 0.00 in
05:23 22.5 °F 19.7 °F 29.76 in NNE 4.0 mph 13.0 mph 89 % 0.00 in
05:28 22.6 °F 19.8 °F 29.75 in North 6.0 mph 11.0 mph 89 % 0.00 in
05:29 22.6 °F 19.8 °F 29.75 in North 3.0 mph 11.0 mph 89 % 0.00 in
05:30 22.5 °F 19.7 °F 29.75 in NNE 7.0 mph 11.0 mph 89 % 0.00 in
05:35 22.7 °F 19.9 °F 29.76 in WNW 7.0 mph 13.0 mph 89 % 0.00 in
05:40 22.7 °F 19.9 °F 29.75 in NW 7.0 mph 13.0 mph 89 % 0.00 in
05:42 22.7 °F 19.9 °F 29.75 in NW 8.0 mph 13.0 mph 89 % 0.00 in
05:47 22.7 °F 19.9 °F 29.74 in North 2.0 mph 13.0 mph 89 % 0.00 in
05:48 22.7 °F 19.9 °F 29.74 in WNW 4.0 mph 13.0 mph 89 % 0.00 in
05:50 22.6 °F 19.8 °F 29.74 in West 6.0 mph 12.0 mph 89 % 0.00 in
05:53 22.6 °F 19.8 °F 29.75 in WNW 5.0 mph 12.0 mph 89 % 0.00 in
05:58 22.5 °F 19.7 °F 29.75 in North 3.0 mph 11.0 mph 89 % 0.00 in
05:59 22.6 °F 19.8 °F 29.75 in NW 2.0 mph 11.0 mph 89 % 0.00 in
06:04 22.7 °F 20.2 °F 29.74 in NNE 4.0 mph 13.0 mph 90 % 0.00 in
06:06 22.6 °F 20.1 °F 29.74 in NW 6.0 mph 13.0 mph 90 % 0.00 in
06:11 22.5 °F 19.7 °F 29.73 in WNW 5.0 mph 13.0 mph 89 % 0.00 in
06:14 22.3 °F 19.5 °F 29.73 in WNW 9.0 mph 13.0 mph 89 % 0.00 in
06:15 22.3 °F 19.5 °F 29.73 in North 5.0 mph 13.0 mph 89 % 0.00 in
06:20 22.2 °F 19.7 °F 29.73 in North 5.0 mph 13.0 mph 90 % 0.00 in
06:21 22.1 °F 19.6 °F 29.73 in NW 3.0 mph 13.0 mph 90 % 0.00 in
06:26 22.1 °F 19.6 °F 29.72 in WNW 8.0 mph 14.0 mph 90 % 0.00 in
06:27 22.1 °F 19.6 °F 29.72 in NW 5.0 mph 14.0 mph 90 % 0.00 in
06:30 22.1 °F 19.3 °F 29.72 in North 4.0 mph 14.0 mph 89 % 0.00 in
06:34 22.0 °F 19.5 °F 29.72 in North 6.0 mph 14.0 mph 90 % 0.00 in
06:36 22.1 °F 19.6 °F 29.72 in West 5.0 mph 14.0 mph 90 % 0.00 in
06:39 22.0 °F 19.5 °F 29.72 in NW 2.0 mph 14.0 mph 90 % 0.00 in
06:43 22.0 °F 19.2 °F 29.71 in North 6.0 mph 14.0 mph 89 % 0.00 in
06:44 22.0 °F 19.2 °F 29.71 in North 9.0 mph 14.0 mph 89 % 0.00 in
06:49 22.0 °F 19.2 °F 29.71 in NW 2.0 mph 13.0 mph 89 % 0.00 in
06:50 22.0 °F 19.2 °F 29.71 in West 4.0 mph 13.0 mph 89 % 0.00 in
06:51 22.0 °F 19.2 °F 29.71 in NW 7.0 mph 13.0 mph 89 % 0.00 in
06:56 22.0 °F 19.2 °F 29.71 in NE 4.0 mph 13.0 mph 89 % 0.00 in
06:59 22.0 °F 19.2 °F 29.71 in NW 5.0 mph 13.0 mph 89 % 0.00 in
07:02 22.0 °F 19.2 °F 29.70 in NW 1.0 mph 13.0 mph 89 % 0.00 in
07:05 22.0 °F 19.2 °F 29.70 in South 1.0 mph 13.0 mph 89 % 0.00 in
07:10 22.0 °F 18.9 °F 29.70 in NNE 4.0 mph 12.0 mph 88 % 0.00 in
07:15 22.0 °F 18.9 °F 29.70 in North 8.0 mph 12.0 mph 88 % 0.00 in
07:16 22.0 °F 18.9 °F 29.70 in North 7.0 mph 12.0 mph 88 % 0.00 in
07:17 21.9 °F 18.6 °F 29.70 in NW 11.0 mph 12.0 mph 87 % 0.00 in
07:22 22.0 °F 18.4 °F 29.70 in NW 7.0 mph 14.0 mph 86 % 0.00 in
07:24 21.9 °F 18.1 °F 29.70 in NNE 5.0 mph 14.0 mph 85 % 0.00 in
07:25 21.9 °F 18.1 °F 29.70 in North 2.0 mph 14.0 mph 85 % 0.00 in
07:30 21.9 °F 18.1 °F 29.70 in NNE 5.0 mph 14.0 mph 85 % 0.00 in
07:35 21.9 °F 17.5 °F 29.69 in NW 8.0 mph 14.0 mph 83 % 0.00 in
07:38 22.0 °F 17.6 °F 29.69 in WNW 1.0 mph 12.0 mph 83 % 0.00 in
07:39 22.0 °F 17.6 °F 29.70 in North 5.0 mph 12.0 mph 83 % 0.00 in
07:44 22.1 °F 17.4 °F 29.69 in NNE 7.0 mph 12.0 mph 82 % 0.00 in
07:45 22.1 °F 17.4 °F 29.70 in WNW 3.0 mph 12.0 mph 82 % 0.00 in
07:48 22.1 °F 17.4 °F 29.70 in North 4.0 mph 12.0 mph 82 % 0.00 in
07:50 22.1 °F 17.4 °F 29.70 in NNE 8.0 mph 12.0 mph 82 % 0.00 in
07:52 22.1 °F 17.4 °F 29.70 in NW 9.0 mph 13.0 mph 82 % 0.00 in
07:55 22.1 °F 17.2 °F 29.70 in North 5.0 mph 13.0 mph 81 % 0.00 in
07:56 22.1 °F 17.2 °F 29.69 in North 6.0 mph 13.0 mph 81 % 0.00 in
08:01 22.1 °F 17.2 °F 29.69 in WNW 13.0 mph 14.0 mph 81 % 0.00 in
08:06 22.2 °F 17.3 °F 29.70 in NNE 9.0 mph 14.0 mph 81 % 0.00 in
08:08 22.2 °F 17.0 °F 29.70 in WNW 7.0 mph 14.0 mph 80 % 0.00 in
08:09 22.2 °F 17.0 °F 29.69 in NNE 4.0 mph 14.0 mph 80 % 0.00 in
08:12 22.3 °F 17.1 °F 29.70 in NW 10.0 mph 14.0 mph 80 % 0.00 in
08:17 22.4 °F 17.2 °F 29.70 in WNW 2.0 mph 13.0 mph 80 % 0.00 in
08:20 22.4 °F 17.2 °F 29.70 in North 10.0 mph 13.0 mph 80 % 0.00 in
08:25 22.5 °F 17.0 °F 29.69 in North 5.0 mph 16.0 mph 79 % 0.00 in
08:26 22.5 °F 17.0 °F 29.69 in NW 5.0 mph 16.0 mph 79 % 0.00 in
08:27 22.5 °F 17.0 °F 29.69 in NW 6.0 mph 16.0 mph 79 % 0.00 in
08:32 22.5 °F 17.0 °F 29.69 in West 3.0 mph 16.0 mph 79 % 0.00 in
08:37 22.6 °F 17.1 °F 29.69 in WNW 2.0 mph 16.0 mph 79 % 0.00 in
08:38 22.6 °F 17.1 °F 29.69 in North 9.0 mph 16.0 mph 79 % 0.00 in
08:39 22.6 °F 17.1 °F 29.69 in WNW 6.0 mph 16.0 mph 79 % 0.00 in
08:44 22.6 °F 17.1 °F 29.69 in WSW 3.0 mph 15.0 mph 79 % 0.00 in
08:50 22.6 °F 17.1 °F 29.69 in NNE 14.0 mph 15.0 mph 79 % 0.00 in
08:51 22.6 °F 17.1 °F 29.69 in WSW 7.0 mph 15.0 mph 79 % 0.00 in
08:56 22.6 °F 17.1 °F 29.69 in WNW 5.0 mph 18.0 mph 79 % 0.00 in
08:57 22.6 °F 17.1 °F 29.69 in NNE 4.0 mph 18.0 mph 79 % 0.00 in
09:02 22.6 °F 17.1 °F 29.69 in West 4.0 mph 18.0 mph 79 % 0.00 in
09:04 22.6 °F 17.1 °F 29.69 in WNW 5.0 mph 18.0 mph 79 % 0.00 in
09:09 22.7 °F 17.5 °F 29.69 in NW 8.0 mph 18.0 mph 80 % 0.00 in
09:10 22.7 °F 17.5 °F 29.69 in North 5.0 mph 15.0 mph 80 % 0.00 in
09:16 22.7 °F 17.5 °F 29.69 in NE 5.0 mph 15.0 mph 80 % 0.00 in
09:17 22.7 °F 17.5 °F 29.69 in North 6.0 mph 15.0 mph 80 % 0.00 in
09:19 22.7 °F 17.5 °F 29.68 in ENE 1.0 mph 15.0 mph 80 % 0.00 in
09:21 22.8 °F 17.6 °F 29.69 in North 8.0 mph 15.0 mph 80 % 0.00 in
09:24 22.9 °F 17.7 °F 29.69 in North 3.0 mph 14.0 mph 80 % 0.00 in
09:26 22.9 °F 17.4 °F 29.68 in NW 6.0 mph 13.0 mph 79 % 0.00 in
09:28 23.0 °F 17.5 °F 29.68 in NW 7.0 mph 19.0 mph 79 % 0.00 in
09:30 23.0 °F 17.5 °F 29.68 in WNW 4.0 mph 19.0 mph 79 % 0.00 in
09:35 23.0 °F 17.2 °F 29.68 in WNW 8.0 mph 19.0 mph 78 % 0.00 in
09:39 23.1 °F 17.3 °F 29.69 in WSW 9.0 mph 19.0 mph 78 % 0.00 in
09:44 23.2 °F 17.4 °F 29.69 in WNW 5.0 mph 19.0 mph 78 % 0.00 in
09:46 23.3 °F 17.5 °F 29.69 in North 3.0 mph 17.0 mph 78 % 0.00 in
09:48 23.3 °F 17.5 °F 29.69 in West 1.0 mph 17.0 mph 78 % 0.00 in
09:49 23.3 °F 17.5 °F 29.69 in West 4.0 mph 17.0 mph 78 % 0.00 in
09:53 23.4 °F 17.6 °F 29.69 in WSW 4.0 mph 17.0 mph 78 % 0.00 in
09:54 23.4 °F 17.6 °F 29.69 in NNE 3.0 mph 17.0 mph 78 % 0.00 in
09:59 23.5 °F 17.4 °F 29.69 in NE 5.0 mph 20.0 mph 77 % 0.00 in
10:01 23.6 °F 17.5 °F 29.69 in NW 2.0 mph 20.0 mph 77 % 0.00 in
10:05 23.7 °F 17.3 °F 29.68 in NW 9.0 mph 20.0 mph 76 % 0.00 in
10:06 23.7 °F 17.3 °F 29.69 in WNW 6.0 mph 20.0 mph 76 % 0.00 in
10:08 23.8 °F 17.4 °F 29.69 in SW 14.0 mph 20.0 mph 76 % 0.00 in
10:13 23.9 °F 17.5 °F 29.68 in NNE 7.0 mph 20.0 mph 76 % 0.00 in
10:17 24.0 °F 17.3 °F 29.68 in WNW 5.0 mph 19.0 mph 75 % 0.00 in
10:21 24.0 °F 17.3 °F 29.68 in North 5.0 mph 19.0 mph 75 % 0.00 in
10:24 24.2 °F 17.1 °F 29.68 in North 11.0 mph 19.0 mph 74 % 0.00 in
10:26 24.2 °F 17.1 °F 29.67 in WSW 5.0 mph 19.0 mph 74 % 0.00 in
10:30 24.3 °F 17.2 °F 29.67 in WNW 12.0 mph 16.0 mph 74 % 0.00 in
10:35 24.4 °F 17.3 °F 29.67 in West 6.0 mph 16.0 mph 74 % 0.00 in
10:36 24.4 °F 17.0 °F 29.67 in SW 6.0 mph 16.0 mph 73 % 0.00 in
10:41 24.4 °F 17.0 °F 29.67 in WNW 6.0 mph 16.0 mph 73 % 0.00 in
10:45 24.3 °F 16.9 °F 29.67 in NW 5.0 mph 18.0 mph 73 % 0.00 in
10:46 24.3 °F 16.9 °F 29.67 in WSW 6.0 mph 18.0 mph 73 % 0.00 in
10:50 24.3 °F 16.9 °F 29.67 in NNE 7.0 mph 18.0 mph 73 % 0.00 in
10:54 24.3 °F 16.9 °F 29.67 in East 7.0 mph 18.0 mph 73 % 0.00 in
10:59 24.4 °F 17.0 °F 29.66 in West 3.0 mph 18.0 mph 73 % 0.00 in
11:04 24.4 °F 17.0 °F 29.66 in SW 4.0 mph 15.0 mph 73 % 0.00 in
11:06 24.4 °F 17.0 °F 29.66 in West 3.0 mph 15.0 mph 73 % 0.00 in
11:11 24.5 °F 17.1 °F 29.66 in NW 4.0 mph 15.0 mph 73 % 0.00 in
11:14 24.5 °F 17.1 °F 29.66 in WSW 1.0 mph 15.0 mph 73 % 0.00 in
11:19 24.4 °F 17.0 °F 29.66 in West 10.0 mph 16.0 mph 73 % 0.00 in
11:20 24.4 °F 17.0 °F 29.66 in North 5.0 mph 16.0 mph 73 % 0.00 in
11:21 24.4 °F 17.0 °F 29.66 in NW 4.0 mph 16.0 mph 73 % 0.00 in
11:25 24.4 °F 17.3 °F 29.66 in NNE 1.0 mph 16.0 mph 74 % 0.00 in
11:27 24.4 °F 17.3 °F 29.66 in WSW 4.0 mph 16.0 mph 74 % 0.00 in
11:30 24.4 °F 17.3 °F 29.66 in NNE 9.0 mph 16.0 mph 74 % 0.00 in
11:31 24.4 °F 17.3 °F 29.65 in WNW 2.0 mph 16.0 mph 74 % 0.00 in
11:36 24.4 °F 17.3 °F 29.65 in NNE 4.0 mph 16.0 mph 74 % 0.00 in
11:37 24.4 °F 17.3 °F 29.66 in WNW 4.0 mph 13.0 mph 74 % 0.00 in
11:39 24.4 °F 17.3 °F 29.65 in WNW 2.0 mph 13.0 mph 74 % 0.00 in
11:42 24.3 °F 17.2 °F 29.65 in NNE 10.0 mph 17.0 mph 74 % 0.00 in
11:43 24.3 °F 17.2 °F 29.66 in WNW 5.0 mph 17.0 mph 74 % 0.00 in
11:45 24.2 °F 17.1 °F 29.66 in WNW 8.0 mph 17.0 mph 74 % 0.00 in
11:50 24.1 °F 17.4 °F 29.65 in WNW 4.0 mph 18.0 mph 75 % 0.00 in
11:51 24.1 °F 17.4 °F 29.65 in WSW 4.0 mph 18.0 mph 75 % 0.00 in
11:56 24.0 °F 17.6 °F 29.65 in WSW 5.0 mph 18.0 mph 76 % 0.00 in
11:57 24.0 °F 17.9 °F 29.65 in WNW 5.0 mph 18.0 mph 77 % 0.00 in
11:58 24.0 °F 17.9 °F 29.65 in NW 4.0 mph 18.0 mph 77 % 0.00 in
12:03 23.8 °F 18.0 °F 29.65 in WSW 7.0 mph 18.0 mph 78 % 0.00 in
12:05 23.8 °F 18.0 °F 29.64 in SW 5.0 mph 18.0 mph 78 % 0.00 in
12:10 23.6 °F 17.8 °F 29.64 in WNW 2.0 mph 16.0 mph 78 % 0.00 in
12:11 23.6 °F 17.8 °F 29.64 in West 9.0 mph 16.0 mph 78 % 0.00 in
12:16 23.6 °F 17.8 °F 29.64 in WNW 6.0 mph 15.0 mph 78 % 0.00 in
12:17 23.6 °F 17.8 °F 29.64 in WSW 4.0 mph 15.0 mph 78 % 0.00 in
12:21 23.7 °F 18.1 °F 29.65 in West 7.0 mph 15.0 mph 79 % 0.00 in
12:22 23.7 °F 18.1 °F 29.64 in SW 3.0 mph 15.0 mph 79 % 0.00 in
12:27 23.8 °F 18.2 °F 29.64 in NW 5.0 mph 14.0 mph 79 % 0.00 in
12:28 23.8 °F 18.2 °F 29.64 in WSW 8.0 mph 14.0 mph 79 % 0.00 in
12:32 23.9 °F 18.1 °F 29.64 in WNW 2.0 mph 14.0 mph 78 % 0.00 in
12:34 23.9 °F 18.1 °F 29.64 in North 6.0 mph 14.0 mph 78 % 0.00 in
12:39 24.0 °F 18.2 °F 29.64 in WNW 5.0 mph 14.0 mph 78 % 0.00 in
12:40 24.0 °F 18.2 °F 29.64 in WSW 2.0 mph 16.0 mph 78 % 0.00 in
12:45 24.2 °F 18.1 °F 29.64 in WNW 2.0 mph 16.0 mph 77 % 0.00 in
12:47 24.2 °F 18.1 °F 29.64 in WNW 4.0 mph 16.0 mph 77 % 0.00 in
12:52 24.4 °F 18.2 °F 29.64 in SSW 5.0 mph 16.0 mph 77 % 0.00 in
12:57 24.5 °F 18.3 °F 29.64 in WNW 3.0 mph 18.0 mph 77 % 0.00 in
12:59 24.5 °F 18.0 °F 29.65 in WSW 6.0 mph 18.0 mph 76 % 0.00 in
13:04 24.6 °F 17.8 °F 29.65 in WNW 1.0 mph 19.0 mph 75 % 0.00 in
13:09 24.7 °F 17.9 °F 29.64 in WNW 1.0 mph 19.0 mph 75 % 0.00 in
13:14 24.7 °F 17.6 °F 29.65 in North 4.0 mph 20.0 mph 74 % 0.00 in
13:15 24.7 °F 17.6 °F 29.65 in SW 10.0 mph 20.0 mph 74 % 0.00 in
13:20 24.8 °F 17.7 °F 29.64 in NW 6.0 mph 20.0 mph 74 % 0.00 in
13:21 24.8 °F 17.4 °F 29.65 in WNW 6.0 mph 20.0 mph 73 % 0.00 in
13:26 24.9 °F 17.5 °F 29.65 in Calm   20.0 mph 73 % 0.00 in
13:28 24.9 °F 17.5 °F 29.65 in NW 8.0 mph 20.0 mph 73 % 0.00 in
13:31 24.9 °F 17.5 °F 29.65 in NW 5.0 mph 16.0 mph 73 % 0.00 in
13:37 24.8 °F 17.1 °F 29.65 in West 12.0 mph 17.0 mph 72 % 0.00 in
13:38 24.8 °F 17.1 °F 29.66 in North 5.0 mph 17.0 mph 72 % 0.00 in
13:43 24.9 °F 17.2 °F 29.66 in West 9.0 mph 21.0 mph 72 % 0.00 in
13:44 24.9 °F 17.2 °F 29.66 in West 4.0 mph 21.0 mph 72 % 0.00 in
13:49 25.1 °F 17.1 °F 29.66 in West 6.0 mph 21.0 mph 71 % 0.00 in
13:50 25.1 °F 17.1 °F 29.66 in Calm   21.0 mph 71 % 0.00 in
13:52 25.1 °F 17.1 °F 29.66 in SW 7.0 mph 21.0 mph 71 % 0.00 in
13:57 25.2 °F 16.8 °F 29.66 in WSW 3.0 mph 21.0 mph 70 % 0.00 in
14:02 25.4 °F 16.4 °F 29.66 in SW 14.0 mph 22.0 mph 68 % 0.00 in
14:03 25.4 °F 16.0 °F 29.66 in NW 7.0 mph 22.0 mph 67 % 0.00 in
14:06 25.4 °F 16.0 °F 29.66 in NNE 7.0 mph 22.0 mph 67 % 0.00 in
14:11 25.5 °F 16.1 °F 29.66 in NW 8.0 mph 22.0 mph 67 % 0.00 in
14:17 25.6 °F 15.5 °F 29.66 in WSW 6.0 mph 22.0 mph 65 % 0.00 in
14:18 25.6 °F 15.5 °F 29.66 in SSW 7.0 mph 22.0 mph 65 % 0.00 in
14:20 25.6 °F 15.2 °F 29.66 in WSW 3.0 mph 22.0 mph 64 % 0.00 in
14:24 25.7 °F 15.3 °F 29.67 in West 4.0 mph 19.0 mph 64 % 0.00 in
14:29 25.6 °F 15.5 °F 29.67 in SSW 7.0 mph 19.0 mph 65 % 0.00 in
14:31 25.6 °F 15.5 °F 29.67 in WSW 6.0 mph 19.0 mph 65 % 0.00 in
14:36 25.4 °F 15.3 °F 29.67 in West 7.0 mph 19.0 mph 65 % 0.00 in
14:41 25.4 °F 16.0 °F 29.67 in West 12.0 mph 19.0 mph 67 % 0.00 in
14:46 25.4 °F 16.0 °F 29.67 in WNW 1.0 mph 19.0 mph 67 % 0.00 in
14:51 25.3 °F 15.9 °F 29.67 in West 8.0 mph 24.0 mph 67 % 0.00 in
14:52 25.3 °F 15.9 °F 29.68 in NW 14.0 mph 24.0 mph 67 % 0.00 in
14:58 25.1 °F 15.7 °F 29.67 in WNW 11.0 mph 24.0 mph 67 % 0.00 in
15:03 25.1 °F 15.7 °F 29.68 in SW 12.0 mph 24.0 mph 67 % 0.00 in
15:06 25.1 °F 15.4 °F 29.68 in WSW 5.0 mph 24.0 mph 66 % 0.00 in
15:11 25.3 °F 15.2 °F 29.68 in WNW 4.0 mph 21.0 mph 65 % 0.00 in
15:12 25.3 °F 15.2 °F 29.68 in NW 7.0 mph 21.0 mph 65 % 0.00 in
15:13 25.3 °F 15.2 °F 29.68 in WSW 8.0 mph 21.0 mph 65 % 0.00 in
15:17 25.3 °F 14.9 °F 29.68 in West 6.0 mph 19.0 mph 64 % 0.00 in
15:22 25.2 °F 14.7 °F 29.69 in WNW 9.0 mph 20.0 mph 64 % 0.00 in
15:23 25.2 °F 15.1 °F 29.69 in West 3.0 mph 20.0 mph 65 % 0.00 in
15:27 25.1 °F 14.6 °F 29.68 in WNW 8.0 mph 20.0 mph 64 % 0.00 in
15:32 25.0 °F 14.9 °F 29.69 in WSW 12.0 mph 20.0 mph 65 % 0.00 in
15:35 25.0 °F 14.5 °F 29.69 in WNW 5.0 mph 20.0 mph 64 % 0.00 in
15:37 25.1 °F 14.6 °F 29.69 in North 3.0 mph 17.0 mph 64 % 0.00 in
15:39 25.1 °F 14.3 °F 29.69 in WSW 10.0 mph 17.0 mph 63 % 0.00 in
15:44 25.3 °F 13.8 °F 29.69 in WSW 15.0 mph 17.0 mph 61 % 0.00 in
15:49 25.4 °F 13.4 °F 29.69 in West 8.0 mph 15.0 mph 60 % 0.00 in
15:55 25.5 °F 13.1 °F 29.69 in WNW 5.0 mph 21.0 mph 59 % 0.00 in
16:06 25.8 °F 12.6 °F 29.70 in WSW 5.0 mph 21.0 mph 57 % 0.00 in
16:09 25.8 °F 12.6 °F 29.70 in ENE 5.0 mph 21.0 mph 57 % 0.00 in
16:13 25.8 °F 12.6 °F 29.71 in Calm   17.0 mph 57 % 0.00 in
16:18 25.8 °F 13.0 °F 29.71 in SW 4.0 mph 16.0 mph 58 % 0.00 in
16:19 25.7 °F 12.9 °F 29.71 in WSW 12.0 mph 15.0 mph 58 % 0.00 in
16:23 25.6 °F 12.9 °F 29.71 in WSW 2.0 mph 15.0 mph 58 % 0.00 in
16:29 25.3 °F 12.2 °F 29.71 in WSW 3.0 mph 20.0 mph 57 % 0.00 in
16:34 25.1 °F 11.6 °F 29.72 in WSW 5.0 mph 20.0 mph 56 % 0.00 in
16:42 24.9 °F 11.8 °F 29.72 in SW 17.0 mph 20.0 mph 57 % 0.00 in
16:44 24.8 °F 11.7 °F 29.72 in WSW 1.0 mph 20.0 mph 57 % 0.00 in
16:45 24.8 °F 11.7 °F 29.72 in WSW 14.0 mph 20.0 mph 57 % 0.00 in
16:47 24.8 °F 11.7 °F 29.72 in SW 15.0 mph 20.0 mph 57 % 0.00 in
16:48 24.8 °F 11.7 °F 29.72 in WSW 3.0 mph 20.0 mph 57 % 0.00 in
16:49 24.7 °F 11.6 °F 29.72 in WSW 7.0 mph 20.0 mph 57 % 0.00 in
16:50 24.7 °F 11.6 °F 29.72 in WSW 6.0 mph 20.0 mph 57 % 0.00 in
16:52 24.6 °F 11.5 °F 29.72 in WNW 4.0 mph 18.0 mph 57 % 0.00 in
16:53 24.6 °F 11.5 °F 29.73 in WNW 7.0 mph 18.0 mph 57 % 0.00 in
16:55 24.5 °F 11.4 °F 29.73 in WNW 6.0 mph 18.0 mph 57 % 0.00 in
17:00 24.3 °F 11.2 °F 29.73 in WSW 2.0 mph 18.0 mph 57 % 0.00 in
17:03 24.3 °F 11.2 °F 29.73 in West 4.0 mph 18.0 mph 57 % 0.00 in
17:04 24.2 °F 11.1 °F 29.73 in West 4.0 mph 16.0 mph 57 % 0.00 in
17:08 24.1 °F 11.0 °F 29.73 in West 7.0 mph 17.0 mph 57 % 0.00 in
17:09 24.1 °F 11.0 °F 29.73 in West 5.0 mph 17.0 mph 57 % 0.00 in
17:11 24.0 °F 11.0 °F 29.73 in West 11.0 mph 17.0 mph 57 % 0.00 in
17:16 23.8 °F 10.8 °F 29.74 in WSW 11.0 mph 21.0 mph 57 % 0.00 in
17:21 23.6 °F 10.6 °F 29.74 in WSW 1.0 mph 21.0 mph 57 % 0.00 in
17:26 23.4 °F 10.4 °F 29.75 in West 2.0 mph 21.0 mph 57 % 0.00 in
17:30 23.3 °F 9.9 °F 29.74 in WSW 3.0 mph 21.0 mph 56 % 0.00 in
17:31 23.3 °F 10.3 °F 29.75 in NNE 5.0 mph 22.0 mph 57 % 0.00 in
17:36 23.1 °F 10.1 °F 29.75 in WNW 3.0 mph 29.0 mph 57 % 0.00 in
17:38 23.1 °F 10.1 °F 29.75 in ENE 7.0 mph 29.0 mph 57 % 0.00 in
17:43 23.0 °F 10.0 °F 29.75 in Calm   29.0 mph 57 % 0.00 in
17:48 22.8 °F 9.8 °F 29.75 in West 6.0 mph 29.0 mph 57 % 0.00 in
17:50 22.7 °F 9.8 °F 29.75 in WNW 7.0 mph 29.0 mph 57 % 0.00 in
17:55 22.5 °F 9.2 °F 29.76 in SSW 11.0 mph 26.0 mph 56 % 0.00 in
17:56 22.5 °F 9.2 °F 29.75 in West 8.0 mph 26.0 mph 56 % 0.00 in
18:04 22.4 °F 9.1 °F 29.76 in West 9.0 mph 26.0 mph 56 % 0.00 in
18:06 22.2 °F 8.9 °F 29.76 in West 9.0 mph 26.0 mph 56 % 0.00 in
18:11 22.1 °F 8.8 °F 29.76 in SW 5.0 mph 26.0 mph 56 % 0.00 in
18:16 22.1 °F 8.8 °F 29.77 in WSW 13.0 mph 22.0 mph 56 % 0.00 in
18:17 22.0 °F 8.7 °F 29.77 in NNE 4.0 mph 22.0 mph 56 % 0.00 in
18:20 22.0 °F 8.7 °F 29.77 in SW 6.0 mph 22.0 mph 56 % 0.00 in
18:25 21.8 °F 8.5 °F 29.77 in WSW 13.0 mph 22.0 mph 56 % 0.00 in
18:27 21.7 °F 10.4 °F 29.77 in NW 12.0 mph 22.0 mph 61 % 0.00 in
18:28 21.7 °F 8.4 °F 29.78 in WSW 7.0 mph 22.0 mph 56 % 0.00 in
18:33 21.6 °F 8.3 °F 29.78 in SW 6.0 mph 20.0 mph 56 % 0.00 in
18:34 21.5 °F 8.2 °F 29.78 in WSW 10.0 mph 20.0 mph 56 % 0.00 in
18:39 21.3 °F 8.0 °F 29.78 in WSW 1.0 mph 20.0 mph 56 % 0.00 in
18:41 21.3 °F 8.0 °F 29.78 in WSW 10.0 mph 20.0 mph 56 % 0.00 in
18:46 21.2 °F 8.3 °F 29.78 in West 3.0 mph 20.0 mph 57 % 0.00 in
18:48 21.2 °F 8.3 °F 29.78 in WNW 4.0 mph 17.0 mph 57 % 0.00 in
18:53 21.1 °F 8.2 °F 29.79 in West 6.0 mph 26.0 mph 57 % 0.00 in
18:59 20.9 °F 8.1 °F 29.79 in North 7.0 mph 26.0 mph 57 % 0.00 in
19:04 20.8 °F 8.0 °F 29.80 in WSW 6.0 mph 26.0 mph 57 % 0.00 in
19:08 20.7 °F 7.9 °F 29.80 in North 4.0 mph 26.0 mph 57 % 0.00 in
19:13 20.5 °F 7.3 °F 29.80 in South 4.0 mph 21.0 mph 56 % 0.00 in
19:18 20.4 °F 7.6 °F 29.80 in WSW 6.0 mph 19.0 mph 57 % 0.00 in
19:23 20.3 °F 7.1 °F 29.81 in WSW 8.0 mph 23.0 mph 56 % 0.00 in
19:28 20.2 °F 7.0 °F 29.81 in SSW 10.0 mph 23.0 mph 56 % 0.00 in
19:29 20.1 °F 6.9 °F 29.81 in ESE 2.0 mph 23.0 mph 56 % 0.00 in
19:34 20.1 °F 6.9 °F 29.82 in WSW 4.0 mph 23.0 mph 56 % 0.00 in
19:38 20.0 °F 7.2 °F 29.82 in WSW 7.0 mph 24.0 mph 57 % 0.00 in
19:41 20.0 °F 7.2 °F 29.82 in WSW 7.0 mph 24.0 mph 57 % 0.00 in
19:48 19.7 °F 6.9 °F 29.83 in SW 5.0 mph 24.0 mph 57 % 0.00 in
19:50 19.7 °F 7.3 °F 29.83 in SW 4.0 mph 24.0 mph 58 % 0.00 in
19:55 19.5 °F 6.7 °F 29.83 in SW 4.0 mph 23.0 mph 57 % 0.00 in
20:00 19.4 °F 6.6 °F 29.83 in West 2.0 mph 17.0 mph 57 % 0.00 in
20:05 19.2 °F 6.9 °F 29.84 in NW 6.0 mph 17.0 mph 58 % 0.00 in
20:10 19.1 °F 6.8 °F 29.84 in West 8.0 mph 20.0 mph 58 % 0.00 in
20:11 19.1 °F 6.8 °F 29.84 in West 7.0 mph 20.0 mph 58 % 0.00 in
20:16 19.0 °F 6.7 °F 29.84 in North 5.0 mph 20.0 mph 58 % 0.00 in
20:18 19.0 °F 6.7 °F 29.84 in SW 2.0 mph 20.0 mph 58 % 0.00 in
20:23 18.9 °F 6.2 °F 29.84 in East 7.0 mph 20.0 mph 57 % 0.00 in
20:28 18.8 °F 6.1 °F 29.84 in WNW 1.0 mph 20.0 mph 57 % 0.00 in
20:31 18.7 °F 6.0 °F 29.84 in WNW 2.0 mph 20.0 mph 57 % 0.00 in
20:36 18.6 °F 5.9 °F 29.85 in WSW 5.0 mph 20.0 mph 57 % 0.00 in
20:40 18.5 °F 5.8 °F 29.85 in WSW 6.0 mph 18.0 mph 57 % 0.00 in
20:42 18.5 °F 6.2 °F 29.85 in SW 16.0 mph 18.0 mph 58 % 0.00 in
20:45 18.4 °F 5.7 °F 29.85 in SW 12.0 mph 26.0 mph 57 % 0.00 in
20:48 18.4 °F 5.3 °F 29.85 in WNW 7.0 mph 26.0 mph 56 % 0.00 in
20:53 18.2 °F 5.1 °F 29.85 in WNW 6.0 mph 26.0 mph 56 % 0.00 in
20:54 18.1 °F 5.0 °F 29.85 in West 4.0 mph 26.0 mph 56 % 0.00 in
20:55 18.1 °F 5.0 °F 29.85 in West 7.0 mph 26.0 mph 56 % 0.00 in
21:00 17.9 °F 5.2 °F 29.86 in WSW 7.0 mph 26.0 mph 57 % 0.00 in
21:05 17.8 °F 4.7 °F 29.86 in WNW 4.0 mph 19.0 mph 56 % 0.00 in
21:10 17.8 °F 4.7 °F 29.86 in SW 8.0 mph 27.0 mph 56 % 0.00 in
21:15 17.7 °F 4.3 °F 29.86 in WNW 5.0 mph 27.0 mph 55 % 0.00 in
21:20 17.7 °F 4.2 °F 29.87 in WNW 1.0 mph 27.0 mph 55 % 0.00 in
21:25 17.5 °F 4.5 °F 29.87 in SW 5.0 mph 23.0 mph 56 % 0.00 in
21:29 17.3 °F 4.3 °F 29.87 in WSW 11.0 mph 23.0 mph 56 % 0.00 in
21:32 17.2 °F 4.2 °F 29.87 in WSW 9.0 mph 23.0 mph 56 % 0.00 in
21:37 17.2 °F 4.2 °F 29.88 in WSW 5.0 mph 18.0 mph 56 % 0.00 in
21:39 17.1 °F 4.1 °F 29.88 in WSW 5.0 mph 18.0 mph 56 % 0.00 in
21:44 17.0 °F 4.0 °F 29.88 in SSW 9.0 mph 18.0 mph 56 % 0.00 in
21:49 16.9 °F 3.5 °F 29.88 in SW 5.0 mph 18.0 mph 55 % 0.00 in
21:54 16.7 °F 3.3 °F 29.88 in West 12.0 mph 23.0 mph 55 % 0.00 in
21:55 16.7 °F 3.3 °F 29.88 in WSW 3.0 mph 23.0 mph 55 % 0.00 in
22:00 16.6 °F 3.2 °F 29.88 in WSW 11.0 mph 23.0 mph 55 % 0.00 in
22:02 16.6 °F 3.2 °F 29.89 in West 17.0 mph 23.0 mph 55 % 0.00 in
22:06 16.6 °F 3.2 °F 29.88 in NW 4.0 mph 28.0 mph 55 % 0.00 in
22:07 16.6 °F 2.8 °F 29.89 in WSW 19.0 mph 28.0 mph 54 % 0.00 in
22:12 16.5 °F 3.1 °F 29.89 in WSW 6.0 mph 28.0 mph 55 % 0.00 in
22:13 16.6 °F 2.8 °F 29.89 in WSW 14.0 mph 28.0 mph 54 % 0.00 in
22:18 16.4 °F 2.6 °F 29.88 in WSW 4.0 mph 28.0 mph 54 % 0.00 in
22:22 16.2 °F 2.4 °F 29.89 in West 4.0 mph 28.0 mph 54 % 0.00 in
22:27 16.1 °F 2.4 °F 29.89 in WNW 2.0 mph 20.0 mph 54 % 0.00 in
22:28 16.1 °F 2.4 °F 29.89 in Calm   20.0 mph 54 % 0.00 in
22:33 15.9 °F 2.6 °F 29.89 in West 9.0 mph 20.0 mph 55 % 0.00 in
22:34 15.9 °F 2.2 °F 29.89 in WSW 6.0 mph 20.0 mph 54 % 0.00 in
22:39 15.9 °F 2.6 °F 29.90 in SW 7.0 mph 18.0 mph 55 % 0.00 in
22:42 15.8 °F 2.5 °F 29.90 in SW 2.0 mph 18.0 mph 55 % 0.00 in
22:47 15.7 °F 2.4 °F 29.90 in WSW 8.0 mph 18.0 mph 55 % 0.00 in
22:48 15.7 °F 2.4 °F 29.90 in SW 19.0 mph 19.0 mph 55 % 0.00 in
22:53 15.7 °F 2.0 °F 29.91 in WSW 8.0 mph 24.0 mph 54 % 0.00 in
22:58 15.6 °F 1.9 °F 29.91 in WSW 4.0 mph 24.0 mph 54 % 0.00 in
23:03 15.5 °F 1.8 °F 29.91 in WSW 5.0 mph 24.0 mph 54 % 0.00 in
23:05 15.5 °F 2.2 °F 29.91 in West 15.0 mph 27.0 mph 55 % 0.00 in
23:08 15.4 °F 2.1 °F 29.91 in WSW 5.0 mph 27.0 mph 55 % 0.00 in
23:13 15.3 °F 2.0 °F 29.92 in WSW 10.0 mph 27.0 mph 55 % 0.00 in
23:14 15.3 °F 2.0 °F 29.92 in SW 8.0 mph 27.0 mph 55 % 0.00 in
23:20 15.2 °F 1.9 °F 29.92 in West 3.0 mph 27.0 mph 55 % 0.00 in
23:25 15.0 °F 1.7 °F 29.92 in WSW 3.0 mph 19.0 mph 55 % 0.00 in
23:26 15.0 °F 1.7 °F 29.92 in WNW 4.0 mph 19.0 mph 55 % 0.00 in
23:28 15.0 °F 1.7 °F 29.92 in WSW 11.0 mph 19.0 mph 55 % 0.00 in
23:32 14.9 °F 1.6 °F 29.92 in West 5.0 mph 19.0 mph 55 % 0.00 in
23:37 14.9 °F 1.6 °F 29.92 in SW 20.0 mph 20.0 mph 55 % 0.00 in
23:42 14.8 °F 1.1 °F 29.93 in WSW 8.0 mph 20.0 mph 54 % 0.00 in
23:43 14.8 °F 1.1 °F 29.92 in SW 8.0 mph 20.0 mph 54 % 0.00 in
23:48 14.8 °F 1.1 °F 29.92 in NE 3.0 mph 20.0 mph 54 % 0.00 in
23:50 14.8 °F 1.1 °F 29.92 in SW 3.0 mph 20.0 mph 54 % 0.00 in
23:54 14.6 °F 0.9 °F 29.92 in West 7.0 mph 20.0 mph 54 % 0.00 in
23:55 14.5 °F 0.8 °F 29.92 in WSW 5.0 mph 20.0 mph 54 % 0.00 in
MarylandWx.com
Compliments of Weather Underground - 7.25 mb